Home > Weather > Samarkand > Past weeks

Flag for Uzbekistan Weather for the Past 2 Weeks in Samarkand, Uzbekistan

Now
64 °F

Passing clouds.


Feels Like: 64 °F
Forecast: 62 / 86 °F
Wind: 2 mph from North

Location: Samarkand

Current Time: May 6, 2016 at 3:39:17 AM

Latest Report: May 6, 2016 at 3:00 AM


Visibility: 4 mi

Pressure: 29.86 "Hg (27.44 "Hg at 721m altitude)

Humidity: 68%

Dew Point: 54 °F

Location of SamarkandLocation

Historic Weather in Samarkand — Graph

°F

Samarkand Temperature Yesterday

Maximum temperature yesterday: 82 °F (at 2:00 PM)
Minimum temperature yesterday: 57 °F (at 4:00 AM)
Average temperature yesterday: 70 °F

High & Low Weather Summary for the Past Weeks

 TemperatureHumidityPressure
High88 °F (Apr 30, 1:00 PM)100% (Apr 21, 5:30 AM)30.21 "Hg (Apr 21, 5:30 AM)
Low39 °F (Apr 21, 3:00 AM)18% (May 1, 1:00 PM)29.80 "Hg (May 1, 1:00 AM)
Average66 °F58%29.99 "Hg
* Reported Apr 21 2:00 AM — May 6 2:00 AM, Samarkand, Weather by CustomWeather, © 2016

Note: Actual official high and low records may vary slightly from our data, if they occured in-between our weather recording intervals... More about our weather records

Advertising

Samarkand Weather History for the Previous 24 Hours

Scroll right to see more
 ConditionsComfort  
Time TempWeatherWind HumidityBarometerVisibility
2:00 AM
Fri, May 6
63 °FPassing clouds.8 mph77%29.86 "Hg4 mi
1:30 AM63 °FPassing clouds.8 mph77%29.89 "Hg4 mi
1:00 AM63 °FPassing clouds.8 mph77%29.89 "Hg4 mi
12:30 AM61 °FPassing clouds.8 mph88%29.89 "Hg4 mi
12:00 AM61 °FPassing clouds.7 mph88%29.92 "Hg4 mi
11:30 PM
Thu, May 5
61 °FPassing clouds.3 mph88%29.95 "Hg4 mi
11:00 PM61 °FSprinkles. Overcast.5 mph88%29.95 "Hg4 mi
10:30 PM70 °FPassing clouds.13 mph50%29.89 "Hg4 mi
10:00 PM72 °FThunderstorms. Passing clouds.3 mph47%29.83 "Hg4 mi
9:30 PM70 °FPassing clouds.8 mph50%29.80 "Hg4 mi
9:00 PM68 °FPassing clouds.5 mph53%29.83 "Hg4 mi
8:30 PM70 °FPassing clouds.5 mph50%29.83 "Hg4 mi
8:00 PM68 °FPassing clouds.7 mph53%29.83 "Hg4 mi
7:30 PM70 °FPassing clouds.5 mph57%29.86 "HgN/A
7:00 PM72 °FScattered clouds.7 mph50%29.86 "HgN/A
6:30 PM73 °FPartly sunny.8 mph44%29.86 "HgN/A
6:00 PM75 °FScattered clouds.5 mph44%29.86 "HgN/A
5:30 PM75 °FScattered clouds.5 mph50%29.83 "HgN/A
5:00 PM77 °FClear.5 mph47%29.83 "HgN/A
4:30 PM77 °FClear.6 mph42%29.83 "HgN/A
4:00 PM81 °FClear.7 mph32%29.83 "HgN/A
3:30 PM81 °FClear.6 mph26%29.83 "HgN/A
3:00 PM81 °FClear.6 mph30%29.83 "HgN/A
2:30 PM81 °FClear.13 mph34%29.86 "HgN/A
2:00 PM82 °FClear.12 mph32%29.86 "HgN/A
1:30 PM81 °FClear.8 mph37%29.86 "HgN/A
1:00 PM81 °FClear.8 mph28%29.86 "HgN/A
12:30 PM81 °FClear.6 mph26%29.86 "HgN/A
12:00 PM81 °FClear.7 mph30%29.86 "HgN/A
11:30 AM81 °FClear.6 mph30%29.89 "HgN/A
11:00 AM79 °FClear.7 mph34%29.89 "HgN/A
10:30 AM79 °FClear.2 mph34%29.89 "HgN/A
10:00 AM77 °FClear.5 mph47%29.89 "HgN/A
9:30 AM75 °FClear.6 mph50%29.89 "HgN/A
9:00 AM72 °FClear.8 mph57%29.89 "HgN/A
8:30 AM70 °FClear.6 mph60%29.89 "HgN/A
8:00 AM68 °FClear.8 mph60%29.86 "HgN/A
7:30 AM64 °FClear.7 mph73%29.86 "HgN/A
7:00 AM63 °FClear.6 mph77%29.86 "HgN/A
6:30 AM59 °FClear.5 mph82%29.86 "HgN/A
6:00 AM59 °FClear.3 mph82%29.86 "HgN/A
5:30 AM61 °FClear.2 mph77%29.86 "HgN/A
5:00 AM59 °FClear.5 mph82%29.86 "Hg4 mi
4:30 AM59 °FClear.3 mph82%29.86 "Hg4 mi
4:00 AM57 °FClear.3 mph88%29.86 "Hg4 mi
3:30 AM59 °FClear.3 mph88%29.86 "Hg4 mi
3:00 AM59 °FClear.5 mph88%29.86 "Hg4 mi
Weather by CustomWeather, © 2016

See weather overviewHow to use our weather pages